Tracking 29511 objects as of 15-Sep-2024
HD Live streaming from Space Station
objects crossing your sky now

STARLINK-4381

Track STARLINK-4381 now!
10-day predictions
STARLINK-4381 is classified as:


NORAD ID: 53222
Int'l Code: 2022-084AK
Perigee: 569.1 km
Apogee: 571.2 km
Inclination: 97.7 °
Period: 95.9 minutes
Semi major axis: 6941 km
RCS: Unknown
Launch date: July 22, 2022
Source: United States (US)
Launch site: AIR FORCE WESTERN TEST RANGE (AFWTR)
Your satellite tracking list
Your tracking list is empty




NASA's NSSDC Master Catalog

Two Line Element Set (TLE):
1 53222U 22084AK  24259.11923414  .00000516  00000-0  44762-4 0  9996
2 53222  97.6557 318.6720 0001505  88.7501 271.3896 15.01272423118599
Source of the keplerian elements: AFSPC